CW1509 Weather Reports


Display with metric or nautical units.
time (UTC)temp
F
wind
direction
speed
MPH
gust
MPH
rain 1hr
in
rain 24hr
in
rain mn
in
humidity
%
barometer
mb
20260503231927 57 360 4.0 18.0 0.00 0.00 0.00 64 1008.5
20260503231448 56 360 2.0 18.0 0.00 0.00 0.00 64 1008.7
20260503230925 56 360 3.0 11.0 0.00 0.00 0.00 64 1008.7
20260503230424 57 360 7.0 11.0 0.00 0.00 0.00 63 1008.8
20260503225923 57 360 3.0 10.0 0.00 0.00 0.00 63 1008.8
20260503225442 57 360 1.0 9.0 0.00 0.00 0.00 64 1008.9
20260503224942 57 360 3.0 9.0 0.00 0.00 0.00 63 1008.9
20260503224419 57 360 2.0 8.0 0.00 0.00 0.00 63 1008.9
20260503223919 56 360 4.0 9.0 0.00 0.00 0.00 63 1009.1
20260503223417 56 360 3.0 8.0 0.00 0.00 0.00 63 1009.1
20260503222917 56 360 3.0 13.0 0.00 0.00 0.00 62 1009.2
20260503222417 56 360 6.0 11.0 0.00 0.00 0.00 62 1009.3
20260503221917 56 360 4.0 10.0 0.00 0.00 0.00 63 1009.4
20260503221436 56 360 2.0 9.0 0.00 0.00 0.00 64 1009.4
20260503220954 56 360 3.0 8.0 0.00 0.00 0.00 64 1009.6
20260503220454 56 360 3.0 12.0 0.00 0.00 0.00 65 1009.6
20260503215913 55 360 5.0 12.0 0.00 0.00 0.00 66 1009.7
20260503215413 55 360 3.0 9.0 0.00 0.00 0.00 67 1009.7
20260503214932 54 360 4.0 9.0 0.00 0.00 0.00 67 1009.7
20260503214415 54 360 3.0 8.0 0.00 0.00 0.00 68 1009.6
20260503213918 54 360 2.0 8.0 0.00 0.00 0.00 69 1009.7
20260503213422 53 360 2.0 6.0 0.00 0.00 0.00 68 1009.8
20260503212922 53 360 2.0 8.0 0.00 0.00 0.00 69 1009.9
20260503212423 53 360 1.0 9.0 0.00 0.00 0.00 69 1009.9
20260503211924 53 360 3.0 12.0 0.00 0.00 0.00 69 1010.0
20260503211424 53 360 3.0 12.0 0.00 0.00 0.00 69 1009.9
20260503210943 53 360 2.0 9.0 0.00 0.00 0.00 69 1010.1
20260503210421 52 360 1.0 9.0 0.00 0.00 0.00 69 1010.1
20260503205923 52 360 3.0 11.0 0.00 0.00 0.00 68 1010.2
20260503205424 52 360 3.0 11.0 0.00 0.00 0.00 68 1010.2
20260503204926 52 360 2.0 10.0 0.00 0.00 0.00 68 1010.4
20260503204424 52 360 3.0 10.0 0.00 0.00 0.00 68 1010.6
20260503203925 52 360 3.0 9.0 0.00 0.00 0.00 68 1010.7
20260503203423 52 360 3.0 10.0 0.00 0.00 0.00 68 1010.9
20260503202923 52 360 4.0 10.0 0.00 0.00 0.00 68 1010.8
20260503202423 52 360 2.0 11.0 0.00 0.00 0.00 68 1011.0
20260503201923 52 360 2.0 8.0 0.00 0.00 0.00 68 1011.0
20260503201425 52 360 2.0 12.0 0.00 0.00 0.00 68 1011.1
20260503200924 52 360 4.0 12.0 0.00 0.00 0.00 68 1011.3
20260503200425 52 360 4.0 19.0 0.00 0.00 0.00 68 1011.5
20260503195945 52 360 4.0 19.0 0.00 0.00 0.00 68 1011.8
20260503195426 52 360 5.0 12.0 0.00 0.00 0.00 67 1011.8
20260503194924 52 360 5.0 13.0 0.00 0.00 0.00 67 1012.0
20260503194423 52 360 5.0 13.0 0.00 0.00 0.00 67 1012.2
20260503193923 52 360 6.0 13.0 0.00 0.00 0.00 66 1012.3
20260503193422 52 360 4.0 13.0 0.00 0.00 0.00 66 1012.4
20260503192945 52 360 4.0 17.0 0.00 0.00 0.00 65 1012.4
20260503192443 53 360 4.0 17.0 0.00 0.00 0.00 65 1012.4
20260503191921 53 360 3.0 15.0 0.00 0.00 0.00 65 1012.4
20260503191419 53 360 8.0 15.0 0.00 0.00 0.00 64 1012.6
20260503190921 53 360 5.0 13.0 0.00 0.00 0.00 63 1012.7
20260503190420 54 360 5.0 15.0 0.00 0.00 0.00 62 1012.8
20260503185923 55 360 10.0 18.0 0.00 0.00 0.00 60 1012.8
20260503185421 55 360 8.0 18.0 0.00 0.00 0.00 57 1012.8
20260503184921 56 360 7.0 13.0 0.00 0.00 0.00 56 1012.7
20260503184437 57 360 4.0 15.0 0.00 0.00 0.00 54 1012.7
20260503183915 57 360 6.0 20.0 0.00 0.00 0.00 54 1012.7
20260503183415 58 360 10.0 16.0 0.00 0.00 0.00 53 1012.7
20260503182916 58 360 5.0 16.0 0.00 0.00 0.00 52 1012.6
20260503182415 59 360 7.0 16.0 0.00 0.00 0.00 51 1012.5
20260503181915 60 360 4.0 13.0 0.00 0.00 0.00 50 1012.5
20260503181437 60 360 5.0 16.0 0.00 0.00 0.00 49 1012.5
20260503180936 60 360 8.0 16.0 0.00 0.00 0.00 47 1012.5
20260503180456 60 360 6.0 15.0 0.00 0.00 0.00 48 1012.5
20260503175954 61 211 5.0 13.0 0.00 0.00 0.00 48 1012.5
20260503175414 60 227 6.0 14.0 0.00 0.00 0.00 47 1012.6
20260503174914 61 215 6.0 13.0 0.00 0.00 0.00 45 1012.6
20260503174414 61 360 4.0 9.0 0.00 0.00 0.00 46 1012.6
20260503173934 61 360 5.0 12.0 0.00 0.00 0.00 45 1012.7
20260503173454 61 360 4.0 11.0 0.00 0.00 0.00 47 1012.8
20260503172914 61 360 4.0 11.0 0.00 0.00 0.00 46 1012.8
20260503172414 61 209 4.0 13.0 0.00 0.00 0.00 47 1012.8
20260503171915 61 360 8.0 13.0 0.00 0.00 0.00 45 1013.0
20260503171415 61 360 8.0 15.0 0.00 0.00 0.00 45 1012.9
20260503170936 61 206 6.0 15.0 0.00 0.00 0.00 44 1013.1
20260503170436 61 229 7.0 15.0 0.00 0.00 0.00 44 1013.2
20260503150923 54 360 5.0 13.0 0.00 0.00 0.00 52 1014.3
20260503150421 54 360 6.0 13.0 0.00 0.00 0.00 51 1014.3
20260503130929 47 360 3.0 8.0 0.00 0.00 0.00 60 1015.0
20260503130429 47 360 2.0 8.0 0.00 0.00 0.00 61 1014.9
20260503110427 41 360 2.0 4.0 0.00 0.00 0.00 67 1014.8
20260503090447 41 360 0.0 3.0 0.00 0.00 0.00 65 1015.0
20260503081420 41 360 2.0 3.0 0.00 0.00 0.00 65 1015.0
20260503080919 41 360 2.0 4.0 0.00 0.00 0.00 66 1015.0
20260503080420 41 360 1.0 8.0 0.00 0.00 0.00 65 1015.0
20260503072914 40 360 1.0 3.0 0.00 0.00 0.00 67 1015.1
20260503072435 40 360 1.0 3.0 0.00 0.00 0.00 67 1015.1
20260503071932 40 360 1.0 3.0 0.00 0.00 0.00 68 1015.2
20260503071432 40 360 0.0 2.0 0.00 0.00 0.00 68 1015.3
20260503070952 39 360 1.0 3.0 0.00 0.00 0.00 69 1015.3
20260503070430 39 360 1.0 3.0 0.00 0.00 0.00 70 1015.3
20260503054926 38 360 0.0 0.0 0.00 0.00 0.00 75 1016.0
20260503054425 38 360 0.0 0.0 0.00 0.00 0.00 75 1016.0
20260503053925 38 360 0.0 0.0 0.00 0.00 0.00 75 1016.1
20260503053426 38 360 0.0 0.0 0.00 0.00 0.00 75 1016.1
20260503052925 38 360 0.0 0.0 0.00 0.00 0.00 75 1016.2
20260503052427 38 360 0.0 0.0 0.00 0.00 0.00 75 1016.2
20260503051925 38 360 0.0 0.0 0.00 0.00 0.00 75 1016.2
20260503051424 38 360 0.0 0.0 0.00 0.00 0.00 75 1016.2
20260503050919 38 360 0.0 0.0 0.00 0.00 0.00 75 1016.2
20260503050439 38 360 0.0 0.0 0.00 0.00 0.00 75 1016.3
20260503045919 38 360 0.0 0.0 0.00 0.00 0.00 75 1016.3
20260503045420 38 360 0.0 0.0 0.00 0.00 0.00 75 1016.4
20260503044939 38 360 0.0 0.0 0.00 0.00 0.00 74 1016.4
20260503044418 38 360 0.0 0.0 0.00 0.00 0.00 75 1016.5
20260503043918 38 360 0.0 0.0 0.00 0.00 0.00 75 1016.5
20260503043417 38 360 0.0 0.0 0.00 0.00 0.00 75 1016.6
20260503042918 38 360 0.0 0.0 0.00 0.00 0.00 75 1016.5
20260503042419 38 360 0.0 0.0 0.00 0.00 0.00 74 1016.5
20260503041918 38 360 0.0 0.0 0.00 0.00 0.00 74 1016.5
20260503041418 38 360 0.0 0.0 0.00 0.00 0.00 74 1016.6
20260503040918 38 360 0.0 0.0 0.00 0.00 0.00 74 1016.6
20260503040415 38 360 0.0 0.0 0.00 0.00 0.00 74 1016.6
20260503035915 39 360 0.0 0.0 0.00 0.00 0.00 73 1016.6
20260503035415 39 360 0.0 0.0 0.00 0.00 0.00 72 1016.7
20260503034914 39 360 0.0 0.0 0.00 0.00 0.00 72 1016.7
20260503034415 39 360 0.0 0.0 0.00 0.00 0.00 71 1016.8
20260503033914 39 360 0.0 0.0 0.00 0.00 0.00 71 1016.8
20260503033415 39 360 0.0 0.0 0.00 0.00 0.00 71 1016.8
20260503032935 39 360 0.0 0.0 0.00 0.00 0.00 71 1016.8
20260503032434 39 360 0.0 0.0 0.00 0.00 0.00 71 1016.7
20260503031934 39 360 0.0 0.0 0.00 0.00 0.00 71 1016.8
20260503031414 39 360 0.0 0.0 0.00 0.00 0.00 71 1016.7
20260503030914 40 360 0.0 0.0 0.00 0.00 0.00 71 1016.8
20260503030435 40 360 0.0 0.0 0.00 0.00 0.00 70 1016.8
20260503025915 40 360 0.0 0.0 0.00 0.00 0.00 68 1016.8
20260503025436 40 360 0.0 0.0 0.00 0.00 0.00 68 1016.9
20260503024917 40 360 0.0 0.0 0.00 0.00 0.00 68 1016.9
20260503024416 41 360 0.0 0.0 0.00 0.00 0.00 67 1016.9
20260503024003 41 360 0.0 0.0 0.00 0.00 0.00 67 1016.9
20260503023419 41 360 0.0 0.0 0.00 0.00 0.00 67 1016.9
20260503022918 41 360 0.0 0.0 0.00 0.00 0.00 66 1016.9
20260503022418 41 360 0.0 0.0 0.00 0.00 0.00 65 1016.9
20260503021918 42 360 0.0 0.0 0.00 0.00 0.00 65 1016.9
20260503021419 42 360 0.0 0.0 0.00 0.00 0.00 65 1016.9
20260503020921 42 360 0.0 0.0 0.00 0.00 0.00 64 1016.9
20260503020421 42 360 0.0 0.0 0.00 0.00 0.00 63 1016.9
20260503015921 43 360 0.0 0.0 0.00 0.00 0.00 63 1016.8
20260503015421 43 360 0.0 0.0 0.00 0.00 0.00 63 1016.8
20260503014922 44 360 0.0 0.0 0.00 0.00 0.00 61 1016.7
20260503014422 44 360 0.0 0.0 0.00 0.00 0.00 61 1016.9
20260503013922 44 360 0.0 0.0 0.00 0.00 0.00 59 1016.8
20260503013420 45 360 0.0 0.0 0.00 0.00 0.00 58 1016.8
20260503012922 45 360 0.0 0.0 0.00 0.00 0.00 56 1016.8
20260503012422 46 360 0.0 0.0 0.00 0.00 0.00 55 1016.8
20260503011920 46 360 0.0 0.0 0.00 0.00 0.00 53 1016.7
20260503011423 47 360 0.0 0.0 0.00 0.00 0.00 51 1016.8
20260503010923 48 360 0.0 0.0 0.00 0.00 0.00 50 1016.9
20260503010422 48 360 0.0 0.0 0.00 0.00 0.00 48 1016.8
20260503005925 48 360 0.0 0.0 0.00 0.00 0.00 48 1016.8
20260503005427 49 360 0.0 0.0 0.00 0.00 0.00 46 1016.9
20260503004949 49 360 0.0 0.0 0.00 0.00 0.00 45 1016.8
20260503004430 49 360 0.0 0.0 0.00 0.00 0.00 45 1016.8
20260503003934 49 360 0.0 0.0 0.00 0.00 0.00 46 1016.8
20260503003416 49 360 0.0 0.0 0.00 0.00 0.00 45 1016.9
20260503002918 50 360 0.0 0.0 0.00 0.00 0.00 45 1016.8
20260503002439 50 360 0.0 0.0 0.00 0.00 0.00 42 1016.8
20260503001941 50 360 0.0 0.0 0.00 0.00 0.00 42 1016.8
20260503001420 50 360 0.0 0.0 0.00 0.00 0.00 42 1016.8
20260503000923 50 360 0.0 0.0 0.00 0.00 0.00 42 1016.8
20260503000425 50 360 0.0 1.0 0.00 0.00 0.00 42 1016.8
20260502235948 50 360 0.0 3.0 0.00 0.00 0.00 40 1016.8
20260502235425 51 360 1.0 3.0 0.00 0.00 0.00 40 1016.9
20260502234923 51 360 0.0 4.0 0.00 0.00 0.00 41 1016.9
20260502234427 51 360 2.0 4.0 0.00 0.00 0.00 40 1017.0
20260502233928 51 360 0.0 3.0 0.00 0.00 0.00 39 1017.0
20260502233429 51 360 1.0 3.0 0.00 0.00 0.00 39 1017.0
20260502232925 51 360 1.0 4.0 0.00 0.00 0.00 38 1017.0
20260502232426 52 360 1.0 4.0 0.00 0.00 0.00 38 1017.1